Theta_e
340 341 340 341 341 339 337 337 337 338 337 339 339 340 338 337 336 334 333 332 329 325 324 329 335 337 337 336 322 320 322 319 314 329 334 329 329 330 326 321 322 327 324
340 340 340 340 340 340 338 336 336 336 336 336 339 339 340 337 336 336 334 332 332 329 325 325 331 337 335 336 338 330 319 318 315 315 320 322 331 326 325 322 322 324 323
338 340 339 338 339 339 339 339 336 334 334 334 334 335 336 337 335 335 334 335 333 331 330 327 326 327 330 335 336 335 333 318 317 317 315 316 322 324 322 327 324 320 317
336 336 335 335 337 337 338 338 338 339 339 337 335 334 334 334 334 335 335 336 335 336 333 331 331 327 329 333 335 335 334 326 317 317 324 327 334 336 334 330 328 320 317
330 335 334 330 333 334 334 335 336 336 336 337 337 337 337 337 337 336 336 335 335 335 334 332 331 332 331 328 327 326 334 335 320 317 328 334 335 336 337 336 336 326 319
326 330 330 328 327 327 328 328 327 328 329 330 332 333 334 334 334 335 335 335 335 335 335 334 332 331 332 332 332 330 331 333 334 319 321 334 334 335 336 333 333 331 324
325 325 322 317 313 313 314 315 318 320 320 322 324 325 327 327 327 329 330 333 334 334 333 334 334 333 333 331 330 331 331 331 332 334 322 325 330 332 333 330 327 324 319
317 312 310 309 308 307 307 307 307 308 308 308 308 309 310 312 315 319 323 325 327 331 334 334 333 332 332 332 331 331 330 331 332 331 333 331 324 333 333 333 325 323 318
311 311 310 308 308 308 308 309 309 309 309 309 310 309 309 309 308 308 309 311 315 319 323 329 331 333 334 334 334 333 331 330 330 330 331 331 332 329 333 331 331 326 320
311 310 309 308 309 309 309 309 310 310 311 311 311 311 311 311 310 310 310 310 310 310 309 309 311 317 324 329 332 332 333 333 331 329 329 329 330 331 332 333 334 329 323
311 309 308 309 310 310 310 311 311 311 311 311 312 312 312 312 312 311 311 310 310 311 312 312 312 311 313 315 319 324 331 331 333 334 334 333 334 330 331 333 333 333 329
311 309 309 310 310 311 311 311 311 311 311 311 311 311 311 310 310 311 311 312 312 313 313 313 314 315 316 316 322 326 329 329 330 329 333 333 333 333 334 334 334 334 335
312 309 309 310 310 311 311 310 310 310 311 311 311 311 310 310 310 310 310 310 311 311 312 312 313 313 313 314 315 319 323 325 326 327 330 329 331 333 333 332 334 335 333
312 309 310 309 310 311 311 309 309 309 310 310 310 311 310 309 309 309 309 310 311 310 311 311 311 312 312 313 313 314 315 320 323 322 323 324 327 326 327 329 331 332 333
312 309 310 309 311 311 309 308 309 309 310 309 310 308 308 307 307 307 307 307 307 307 307 308 307 307 307 307 308 309 309 311 314 318 321 321 320 321 322 325 325 329 330
310 310 309 310 311 311 308 308 309 309 309 309 308 308 308 309 309 309 309 309 309 309 309 309 309 309 309 310 309 310 310 310 310 311 311 313 316 317 318 318 322 325 326
311 310 309 310 311 309 307 308 309 309 309 309 309 309 309 309 310 310 310 311 311 311 311 311 311 310 310 311 310 310 311 311 312 312 313 313 313 313 315 317 318 320 323
312 310 309 310 311 308 307 308 309 309 309 310 309 309 310 309 310 310 311 311 311 311 311 311 311 311 311 311 311 311 311 311 311 313 315 316 316 316 317 316 314 315 318
311 309 309 310 310 307 307 308 309 310 311 310 310 309 309 309 309 309 309 310 311 311 309 309 309 308 308 307 305 306 310 312 314 315 315 315 315 316 316 317 317 316 316
310 309 309 310 308 307 307 308 309 311 311 310 310 309 309 308 308 307 308 308 307 307 307 304 301 299 300 299 299 301 306 313 314 314 313 313 314 314 314 314 314 313 314
311 310 309 310 307 306 307 308 309 310 310 309 309 309 308 307 306 305 305 304 303 301 299 297 297 297 297 297 299 300 304 312 312 313 312 314 314 314 315 315 315 314 316
312 310 309 309 306 306 306 306 307 308 308 308 308 308 307 305 302 300 299 298 297 297 296 296 296 296 296 296 297 302 305 308 306 312 310 311 312 312 313 314 315 315 315
311 309 309 307 306 306 306 306 306 306 307 307 308 308 307 303 300 299 298 298 297 296 296 296 296 295 295 295 295 301 304 307 305 310 309 310 310 310 310 311 313 313 314
309 309 309 307 306 306 307 307 306 306 306 306 307 307 305 302 300 300 300 299 299 298 297 296 296 296 295 294 294 295 299 303 304 305 305 306 307 310 309 310 311 311 312
310 309 308 307 307 307 307 307 307 307 306 306 306 307 305 302 301 301 300 300 299 299 297 296 295 294 294 293 293 294 293 296 302 299 300 300 300 303 307 309 309 309 309
309 309 308 307 307 307 307 307 307 307 307 307 306 306 306 303 301 301 301 301 301 300 299 297 295 294 293 293 293 293 293 292 292 292 293 294 293 294 303 307 307 307 304
Wind_Speed
1 2 1 3 4 4 3 3 3 3 3 4 4 4 5 6 6 7 8 8 7 6 5 4 4 5 5 6 7 6 5 4 2 5 3 2 2 2 3 3 3 4 4
3 1 2 3 4 4 4 4 4 3 3 3 4 5 6 7 7 8 8 8 7 7 5 4 3 4 4 6 6 7 6 5 3 3 5 5 4 3 4 4 4 4 4
4 3 4 4 5 5 4 4 4 5 5 5 5 6 7 8 8 9 9 8 7 7 7 6 5 5 6 6 6 7 8 7 5 3 4 4 4 4 5 5 5 6 6
4 4 4 4 4 5 5 5 5 5 6 6 7 7 8 8 9 9 10 9 9 9 9 8 8 7 7 8 8 9 8 7 7 6 4 3 4 6 6 7 8 8 8
4 3 2 4 4 4 5 5 5 5 6 6 7 7 8 9 10 10 11 10 10 10 11 11 10 9 10 11 12 11 9 8 7 7 5 5 6 8 10 10 11 11 11
4 2 1 2 3 4 5 6 6 7 8 8 9 9 9 10 10 10 10 11 11 12 13 13 12 12 12 13 13 12 11 10 10 9 9 9 7 9 14 15 14 14 14
2 1 1 3 5 6 7 7 8 9 10 11 11 12 13 13 13 13 13 12 13 14 14 14 14 14 14 14 14 14 13 13 14 12 11 14 14 12 19 20 18 17 16
2 2 3 5 6 7 8 8 9 10 11 12 13 14 14 14 14 14 14 15 15 15 16 16 16 17 16 16 16 16 15 15 16 16 15 15 17 15 18 22 20 18 17
2 2 5 6 8 8 8 8 9 10 11 12 13 13 13 12 13 13 14 16 16 16 16 16 17 18 18 17 17 17 17 17 19 19 19 18 18 20 19 23 21 21 20
4 4 5 6 7 8 12 11 11 13 13 13 14 15 13 13 13 13 14 15 14 15 16 17 18 19 19 19 20 19 17 17 19 20 21 21 20 21 22 22 24 21 21
5 4 5 6 8 10 10 11 13 13 13 12 12 12 11 11 12 13 13 13 13 12 13 11 11 13 15 16 16 16 14 17 17 19 20 19 18 20 23 26 28 27 26
6 5 6 8 10 11 11 12 12 11 10 10 11 10 9 9 9 9 9 11 11 11 12 12 12 12 13 13 12 11 11 14 17 20 20 19 18 20 21 23 27 28 27
8 7 7 9 11 11 12 12 11 10 10 9 10 10 10 9 9 9 9 11 12 13 15 16 16 17 18 18 17 18 18 17 16 17 18 21 22 24 27 27 27 29 29
9 8 8 10 11 12 13 12 12 10 9 10 12 11 11 11 10 10 10 10 12 14 15 16 16 17 17 18 20 22 23 25 24 22 19 19 19 23 29 29 32 32 31
12 10 10 11 12 13 14 13 12 10 10 10 10 10 11 11 11 10 10 10 13 13 14 14 15 16 16 17 17 18 20 22 25 27 28 27 25 23 23 24 30 31 32
12 9 10 11 12 13 14 13 13 12 10 9 10 9 10 11 11 11 11 12 13 14 14 15 16 16 16 17 17 16 17 17 19 21 24 27 30 29 28 27 26 26 30
10 10 11 11 12 13 13 12 11 11 10 9 8 8 9 11 11 12 12 13 14 14 13 12 12 13 13 13 14 15 16 17 16 15 17 19 20 24 28 30 30 30 31
13 13 11 11 12 12 11 10 9 9 9 9 9 10 12 12 12 13 13 13 13 12 11 11 11 11 13 15 16 15 16 15 14 13 11 12 12 16 18 17 25 34 36
17 13 12 11 11 10 10 9 7 8 9 11 12 12 12 12 12 13 13 13 14 13 13 14 13 15 16 15 15 15 14 10 6 6 10 12 13 14 18 22 25 24 24
15 14 12 11 10 9 9 7 6 7 10 13 11 11 12 12 12 11 11 11 12 13 14 14 15 14 16 18 18 16 9 5 5 7 12 11 12 16 20 22 23 23 26
13 13 13 10 9 9 9 7 6 8 11 12 12 11 11 11 11 11 11 12 13 14 15 17 18 18 16 18 19 16 8 5 8 5 8 9 11 15 16 19 21 19 18
13 14 11 9 8 8 9 9 9 9 11 12 11 10 11 11 11 12 13 13 14 14 14 16 18 19 17 16 17 13 11 3 7 4 11 14 14 14 16 16 20 22 20
15 10 9 8 8 9 9 10 10 10 11 13 11 11 12 12 12 12 13 13 14 15 15 15 16 17 17 14 12 6 5 5 22 4 8 9 14 12 16 16 18 19 19
8 8 8 9 8 8 9 10 10 12 13 13 12 12 12 12 12 13 14 14 15 15 15 15 16 16 16 15 11 9 4 8 4 12 14 13 12 10 12 15 15 14 16
7 8 10 11 11 10 10 11 11 12 13 13 13 13 14 14 14 14 14 14 15 16 16 15 14 13 13 14 14 13 11 6 5 9 16 20 16 11 11 14 15 18 18
11 13 14 15 15 14 14 13 14 14 14 15 14 15 15 15 16 16 15 15 15 16 16 16 15 14 13 12 12 11 12 10 10 11 15 18 18 14 9 13 17 19 20
Wind_Direction
293 346 35 52 50 46 51 53 39 31 18 14 13 6 3 1 5 6 8 10 14 17 15 17 22 13 12 11 13 6 357 356 284 220 228 270 263 279 288 291 320 333 4
147 175 100 52 47 41 35 23 9 354 345 342 347 344 341 340 343 346 351 355 357 2 357 352 343 333 344 340 340 350 342 336 319 261 241 248 256 266 263 272 305 328 326
172 121 98 56 47 38 32 18 3 347 342 335 326 320 319 326 328 328 331 333 338 344 346 337 323 306 302 302 309 326 329 324 309 278 257 254 268 257 251 266 287 300 303
141 126 81 51 38 29 26 17 359 344 336 330 324 320 319 316 314 319 319 323 318 320 327 325 321 309 298 298 301 308 308 312 302 280 258 221 286 275 269 264 288 289 289
155 125 60 30 13 4 358 353 352 350 345 336 328 323 319 316 315 315 311 308 305 303 307 311 306 303 302 299 296 302 295 286 294 272 235 216 267 285 268 265 278 286 284
151 129 51 2 347 338 328 324 324 321 319 316 313 312 312 311 312 310 308 305 303 298 299 300 300 300 299 300 302 301 292 284 278 278 241 225 239 264 275 279 276 281 281
203 139 10 335 320 316 311 308 307 306 306 303 301 299 298 300 302 301 298 296 293 293 293 293 295 295 295 296 296 297 293 284 278 273 265 243 246 245 271 278 276 278 279
238 332 333 328 328 325 322 322 319 314 311 306 301 296 293 292 292 290 290 286 284 287 290 291 292 291 292 291 290 290 288 286 282 279 270 264 252 256 267 277 279 279 276
231 285 312 324 327 325 318 326 319 315 311 306 303 300 300 298 286 283 281 285 289 290 288 288 289 291 293 294 293 294 293 290 286 283 281 273 264 254 256 272 279 279 278
237 277 308 322 330 331 327 333 324 322 318 315 306 301 299 294 290 289 293 298 298 297 292 287 287 285 285 285 287 292 293 292 288 287 284 283 281 268 259 263 269 273 274
248 291 319 331 334 333 331 328 328 321 323 316 313 313 316 301 292 289 289 288 286 290 294 302 292 287 282 284 287 289 289 289 288 289 288 286 286 274 266 262 266 274 272
278 302 318 329 336 337 333 332 327 325 324 321 319 320 321 314 305 294 285 276 279 282 284 284 277 277 276 274 265 268 268 280 287 294 292 291 284 287 276 272 269 271 273
285 300 322 331 336 337 336 336 334 332 327 326 311 321 317 312 309 303 293 285 283 281 282 282 283 279 276 272 270 266 266 269 277 281 288 290 289 287 285 283 277 277 274
275 305 323 329 334 337 338 337 334 332 323 308 319 331 327 326 325 319 308 302 294 291 291 291 289 286 284 277 274 271 266 263 261 263 270 275 277 285 282 284 277 278 276
281 302 315 326 332 336 337 336 331 334 333 331 334 335 334 330 332 331 320 307 297 300 300 298 297 294 289 285 283 281 277 272 266 262 262 265 268 272 271 279 281 280 276
271 289 310 322 327 331 331 333 332 339 347 340 337 335 333 331 332 325 316 308 312 315 310 307 308 309 309 310 309 305 299 291 284 281 276 271 268 270 273 274 275 277 280
271 281 302 315 320 327 329 331 333 339 340 343 340 334 324 332 334 334 330 330 334 337 334 324 313 312 313 311 312 313 310 308 305 300 299 296 291 286 279 277 274 272 275
267 275 288 304 318 323 328 331 334 327 334 332 328 334 336 345 346 344 342 342 345 348 349 344 336 335 329 325 325 321 321 318 316 315 314 318 313 304 295 295 281 272 270
262 270 282 304 315 322 329 329 333 323 327 323 331 336 340 345 346 344 340 337 336 338 338 341 343 341 337 338 337 342 337 340 334 344 333 324 324 315 309 304 299 294 288
268 266 285 302 312 318 324 327 319 310 309 319 326 332 337 342 340 338 336 335 336 335 333 334 336 345 339 335 336 342 343 323 318 340 327 328 327 325 321 320 321 305 286
269 276 278 294 309 318 324 327 309 292 298 316 323 331 333 333 331 333 335 333 331 330 334 335 336 339 345 341 336 343 24 32 54 328 358 341 329 325 335 347 330 331 331
268 283 272 281 296 314 325 326 321 313 315 315 323 328 324 324 327 331 332 334 335 333 333 333 334 335 340 348 347 357 345 329 324 58 345 346 340 335 350 353 1 360 347
283 279 266 281 301 312 322 324 325 319 317 317 320 321 316 319 326 330 332 332 331 333 336 333 331 329 334 345 346 358 348 317 330 272 349 337 334 346 352 348 345 351 1
285 259 271 287 296 304 316 320 319 315 315 316 315 311 308 315 322 324 325 329 331 330 328 328 329 328 327 329 337 325 314 269 285 310 324 321 351 345 347 339 345 353 355
277 283 286 286 287 294 305 308 312 310 308 307 306 303 304 311 315 320 321 322 326 329 329 327 326 324 321 322 325 326 325 325 233 293 298 314 333 337 327 321 327 334 336
300 297 294 289 285 286 290 296 300 301 302 304 303 303 305 306 308 311 312 315 319 321 323 324 322 320 316 314 313 313 314 314 298 309 307 316 324 329 308 311 318 318 327